Find Starlink 34738

NORAD ID: 64951 Int'l Des: 2025-158 Owner: SPXS Country: US Constellation: starlink operational
LEOCIRCULARRETROGRADESSO

当前视图

正在加载3D地球...

About Starlink 34738

Starlink 34738 (NORAD 64951) is a starlink constellation satellite (v2 mini) launched Jul 27, 2025 by SPXS of US. It operates in LEO, CIRCULAR, RETROGRADE, SSO orbit with a mass of 575.00 kg.

即将过境

Passes for default location (London). Set your location on the main map for personalized predictions.

高度历史

Loading altitude history...

两行轨道根数

1 64951U 25158V 26265.61424699 .00006674 00000-0 20885-3 0 9997
2 64951 97.2808 123.9430 0002312 89.9641 270.1867 15.33445254 65039
Epoch: Sep 22, 2026 • Age: 15 hours

当前状态

高度 482.0 km
远地点 / 近地点 N/A
速度 7.62 km/s
星下点 -40.14°S, 150.6°W
发射日期 Jul 27, 2025
运行时间 1.1 years
类型 internet

技术详情

分类 Payload
质量 575.00 kg
干质量 530.00 kg
长度 0.30 m
跨度 29.00 m
形状 ? Box + pan
制造商 SPXS
平台类型 Starlink V2MO
阶段状态 In Orbit
所有者/国家 SPXS/US

Most Searched